This is the latest recevied weather packets stored in our database for station/object WP3OF-2. If no packets are shown the sender has not sent any weather packets the latest 10 day(s).
| Time | Temp. | Humidity | Pressure | Rain* | Wind** | Luminosity | Snow |
|---|---|---|---|---|---|---|---|
| 1777639274 | 21.67° C | 84% | 1024.5 hPa | 0 mm | - | 509 W/m² | - |
| 1777638970 | 21.67° C | 82% | 1024.5 hPa | 0 mm | - | 457 W/m² | - |
| 1777638665 | 21.67° C | 87% | 1024.5 hPa | 0 mm | - | 306 W/m² | - |
| 1777638362 | 21.67° C | 84% | 1024.5 hPa | 0 mm | - | 262 W/m² | - |
| 1777638058 | 21.67° C | 75% | 1024.5 hPa | 0 mm | - | 341 W/m² | - |
| 1777637755 | 21.11° C | 84% | 1024.1 hPa | 0 mm | - | 242 W/m² | - |
| 1777637451 | 20.56° C | 86% | 1024.1 hPa | 0 mm | - | 351 W/m² | - |
| 1777637149 | 21.11° C | 90% | 1024.1 hPa | 0 mm | - | 275 W/m² | - |
| 1777636845 | 20.56° C | 90% | 1024.1 hPa | 0 mm | - | 327 W/m² | - |
| 1777636541 | 20.56° C | 88% | 1023.7 hPa | 0 mm | - | 293 W/m² | - |
| 1777636238 | 20.56° C | 88% | 1023.7 hPa | 0 mm | - | 75 W/m² | - |
| 1777635937 | 20° C | 91% | 1023.7 hPa | 0 mm | - | 225 W/m² | - |
| 1777635633 | 20° C | 92% | 1023.7 hPa | 0 mm | - | 203 W/m² | - |
| 1777635331 | 20° C | 94% | 1023.7 hPa | 0 mm | - | 184 W/m² | - |
| 1777635027 | 20° C | 95% | 1023.4 hPa | 0 mm | - | 163 W/m² | - |
| 1777634723 | 19.44° C | 95% | 1023.7 hPa | 0 mm | - | 121 W/m² | - |
| 1777634421 | 19.44° C | 97% | 1023.7 hPa | 0 mm | - | 112 W/m² | - |
| 1777634118 | 19.44° C | 97% | 1023.7 hPa | 0 mm | - | 62 W/m² | - |
| 1777633814 | 19.44° C | 98% | 1023.4 hPa | 0 mm | - | 56 W/m² | - |
| 1777633512 | 18.89° C | 98% | 1023.4 hPa | 0 mm | - | 55 W/m² | - |
| 1777633210 | 18.89° C | 99% | 1023.4 hPa | 0 mm | - | 48 W/m² | - |
| 1777632907 | 18.89° C | 99% | 1023.4 hPa | 0 mm | - | 39 W/m² | - |
| 1777632602 | 18.89° C | 99% | 1023.4 hPa | 0 mm | - | 30 W/m² | - |
| 1777632300 | 18.89° C | 99% | 1023.4 hPa | 0 mm | - | 29 W/m² | - |
| 1777631996 | 18.89° C | 99% | 1023.4 hPa | 0 mm | - | 24 W/m² | - |
* Rain latest hour (hover to see other rain measurements)
** Current wind speed in m/s (hover to see current wind gust speed)